datetime,max air temp
1990-10-01,68.9
1990-10-02,57.92
1990-10-03,62.78
1990-10-04,71.78
1990-10-05,54.86
1990-10-06,48.74
1990-10-07,51.8
1990-10-08,63.5
1990-10-09,68.54
1990-10-10,59.18
1990-10-11,64.4
1990-10-12,62.42
1990-10-13,55.76
1990-10-14,64.04
1990-10-15,61.7
1990-10-16,49.28
1990-10-17,64.58
1990-10-18,47.3
1990-10-19,44.6
1990-10-20,53.24
1990-10-21,58.82
1990-10-22,54.5
1990-10-23,63.5
1990-10-24,73.22
1990-10-25,65.48
1990-10-26,65.66
1990-10-27,63.86
1990-10-28,53.6
1990-10-29,56.66
1990-10-30,53.6
1990-10-31,37.76
1990-11-01,38.12
1990-11-02,41.72
1990-11-03,51.98
1990-11-04,45.86
1990-11-05,40.28
1990-11-06,39.92
1990-11-07,38.84
1990-11-08,48.2
1990-11-09,59.0
1990-11-10,67.64
1990-11-11,67.82
1990-11-12,61.7
1990-11-13,53.96
1990-11-14,37.58
1990-11-15,48.2
1990-11-16,50.54
1990-11-17,46.04
1990-11-18,44.96
1990-11-19,37.4
1990-11-20,30.74
1990-11-21,33.98
1990-11-22,45.68
1990-11-23,55.58
1990-11-24,57.02
1990-11-25,41.18
1990-11-26,30.02
1990-11-27,30.02
1990-11-28,40.1
1990-11-29,37.04
1990-11-30,36.14
1990-12-01,32.54
1990-12-02,32.36
1990-12-03,47.66
1990-12-04,39.56
1990-12-05,39.56
1990-12-06,49.64
1990-12-07,52.16
1990-12-08,56.12
1990-12-09,50.36
1990-12-10,39.74
1990-12-11,35.24
1990-12-12,29.84
1990-12-13,24.62
1990-12-14,24.62
1990-12-15,33.8
1990-12-16,30.92
1990-12-17,35.78
1990-12-18,34.7
1990-12-19,17.06
1990-12-20,3.56
1990-12-21,-3.1
1990-12-22,17.06
1990-12-23,29.84
1990-12-24,33.08
1990-12-25,36.14
1990-12-26,37.76
1990-12-27,36.14
1990-12-28,26.42
1990-12-29,21.92
1990-12-30,38.3
1990-12-31,45.5
1991-01-01,48.38
1991-01-02,49.64
1991-01-03,45.86
1991-01-04,43.7
1991-01-05,47.12
1991-01-06,41.0
1991-01-07,35.24
1991-01-08,33.98
1991-01-09,36.32
1991-01-10,32.0
1991-01-11,35.06
1991-01-12,37.4
1991-01-13,41.36
1991-01-14,38.48
1991-01-15,40.82
1991-01-16,43.88
1991-01-17,50.18
1991-01-18,50.0
1991-01-19,39.02
1991-01-20,40.64
1991-01-21,42.62
1991-01-22,47.3
1991-01-23,45.32
1991-01-24,44.24
1991-01-25,48.38
1991-01-26,45.5
1991-01-27,43.7
1991-01-28,42.8
1991-01-29,42.62
1991-01-30,48.38
1991-01-31,48.38
1991-02-01,49.28
1991-02-02,40.82
1991-02-03,37.58
1991-02-04,38.12
1991-02-05,49.82
1991-02-06,48.02
1991-02-07,57.02
1991-02-08,50.72
1991-02-09,50.72
1991-02-10,56.66
1991-02-11,51.8
1991-02-12,39.2
1991-02-13,45.14
1991-02-14,59.9
1991-02-15,53.42
1991-02-16,42.44
1991-02-17,37.76
1991-02-18,37.04
1991-02-19,53.42
1991-02-20,53.42
1991-02-21,59.36
1991-02-22,55.58
1991-02-23,50.18
1991-02-24,54.5
1991-02-25,59.72
1991-02-26,59.36
1991-02-27,56.48
1991-02-28,36.32
1991-03-01,38.66
1991-03-02,34.7
1991-03-03,40.82
1991-03-04,40.28
1991-03-05,30.2
1991-03-06,32.0
1991-03-07,41.9
1991-03-08,47.84
1991-03-09,37.22
1991-03-10,33.8
1991-03-11,30.56
1991-03-12,34.34
1991-03-13,35.24
1991-03-14,33.08
1991-03-15,41.54
1991-03-16,39.38
1991-03-17,51.26
1991-03-18,42.44
1991-03-19,40.1
1991-03-20,40.1
1991-03-21,43.7
1991-03-22,38.48
1991-03-23,34.7
1991-03-24,36.14
1991-03-25,36.5
1991-03-26,41.36
1991-03-27,47.84
1991-03-28,48.74
1991-03-29,54.68
1991-03-30,60.08
1991-03-31,54.68
1991-04-01,51.62
1991-04-02,48.38
1991-04-03,48.56
1991-04-04,51.62
1991-04-05,43.34
1991-04-06,43.34
1991-04-07,38.3
1991-04-08,44.96
1991-04-09,45.68
1991-04-10,34.34
1991-04-11,43.16
1991-04-12,53.96
1991-04-13,56.84
1991-04-14,49.64
1991-04-15,41.0
1991-04-16,37.04
1991-04-17,41.9
1991-04-18,48.74
1991-04-19,55.4
1991-04-20,46.58
1991-04-21,50.18
1991-04-22,53.42
1991-04-23,50.18
1991-04-24,36.14
1991-04-25,36.86
1991-04-26,42.26
1991-04-27,46.76
1991-04-28,49.82
1991-04-29,53.6
1991-04-30,57.74
1991-05-01,56.3
1991-05-02,51.44
1991-05-03,55.76
1991-05-04,60.08
1991-05-05,59.36
1991-05-06,55.94
1991-05-07,61.34
1991-05-08,43.34
1991-05-09,41.54
1991-05-10,45.5
1991-05-11,48.56
1991-05-12,54.14
1991-05-13,45.32
1991-05-14,54.68
1991-05-15,63.86
1991-05-16,50.9
1991-05-17,33.08
1991-05-18,46.94
1991-05-19,49.28
1991-05-20,53.24
1991-05-21,66.56
1991-05-22,69.26
1991-05-23,67.82
1991-05-24,65.84
1991-05-25,55.58
1991-05-26,53.96
1991-05-27,60.26
1991-05-28,57.92
1991-05-29,45.32
1991-05-30,48.38
1991-05-31,65.66
1991-06-01,71.96
1991-06-02,74.12
1991-06-03,66.56
1991-06-04,55.04
1991-06-05,50.72
1991-06-06,55.94
1991-06-07,66.02
1991-06-08,70.7
1991-06-09,78.62
1991-06-10,82.58
1991-06-11,72.32
1991-06-12,66.56
1991-06-13,57.38
1991-06-14,63.32
1991-06-15,69.8
1991-06-16,62.78
1991-06-17,68.18
1991-06-18,71.96
1991-06-19,55.4
1991-06-20,60.8
1991-06-21,65.48
1991-06-22,67.1
1991-06-23,63.5
1991-06-24,58.1
1991-06-25,58.82
1991-06-26,63.14
1991-06-27,58.82
1991-06-28,56.48
1991-06-29,57.56
1991-06-30,69.8
1991-07-01,80.78
1991-07-02,87.8
1991-07-03,91.04
1991-07-04,89.42
1991-07-05,87.26
1991-07-06,83.3
1991-07-07,82.22
1991-07-08,81.14
1991-07-09,75.38
1991-07-10,74.66
1991-07-11,80.78
1991-07-12,85.28
1991-07-13,79.7
1991-07-14,74.48
1991-07-15,70.88
1991-07-16,63.68
1991-07-17,66.56
1991-07-18,77.54
1991-07-19,80.24
1991-07-20,82.04
1991-07-21,84.92
1991-07-22,88.52
1991-07-23,83.48
1991-07-24,81.5
1991-07-25,75.56
1991-07-26,80.78
1991-07-27,86.54
1991-07-28,87.8
1991-07-29,86.9
1991-07-30,84.92
1991-07-31,83.48
1991-08-01,78.8
1991-08-02,83.66
1991-08-03,87.08
1991-08-04,78.98
1991-08-05,75.74
1991-08-06,74.3
1991-08-07,73.76
1991-08-08,80.96
1991-08-09,76.28
1991-08-10,75.38
1991-08-11,80.24
1991-08-12,81.86
1991-08-13,79.16
1991-08-14,81.86
1991-08-15,74.48
1991-08-16,80.24
1991-08-17,83.12
1991-08-18,84.02
1991-08-19,86.9
1991-08-20,88.52
1991-08-21,84.38
1991-08-22,84.74
1991-08-23,80.6
1991-08-24,82.04
1991-08-25,71.96
1991-08-26,78.26
1991-08-27,70.16
1991-08-28,64.58
1991-08-29,73.76
1991-08-30,81.68
1991-08-31,77.72
1991-09-01,75.02
1991-09-02,78.98
1991-09-03,87.26
1991-09-04,86.18
1991-09-05,83.84
1991-09-06,80.96
1991-09-07,73.04
1991-09-08,69.98
1991-09-09,69.62
1991-09-10,68.36
1991-09-11,71.6
1991-09-12,77.9
1991-09-13,73.94
1991-09-14,70.34
1991-09-15,80.96
1991-09-16,83.12
1991-09-17,86.0
1991-09-18,86.72
1991-09-19,87.26
1991-09-20,80.42
1991-09-21,71.78
1991-09-22,78.8
1991-09-23,78.26
1991-09-24,84.2
1991-09-25,86.36
1991-09-26,76.28
1991-09-27,77.36
1991-09-28,75.92
1991-09-29,77.72
1991-09-30,80.42
1991-10-01,78.26
1991-10-02,75.38
1991-10-03,79.16
1991-10-04,78.8
1991-10-05,81.68
1991-10-06,77.9
1991-10-07,70.16
1991-10-08,75.38
1991-10-09,78.98
1991-10-10,82.4
1991-10-11,83.48
1991-10-12,77.0
1991-10-13,78.62
1991-10-14,84.56
1991-10-15,81.14
1991-10-16,66.38
1991-10-17,63.32
1991-10-18,69.8
1991-10-19,68.36
1991-10-20,70.34
1991-10-21,66.74
1991-10-22,46.94
1991-10-23,37.58
1991-10-24,40.46
1991-10-25,37.94
1991-10-26,38.48
1991-10-27,32.72
1991-10-28,33.08
1991-10-29,32.0
1991-10-30,44.06
1991-10-31,51.62
1991-11-01,52.16
1991-11-02,45.5
1991-11-03,55.58
1991-11-04,55.94
1991-11-05,59.36
1991-11-06,58.46
1991-11-07,69.44
1991-11-08,55.22
1991-11-09,51.08
1991-11-10,50.0
1991-11-11,59.9
1991-11-12,55.76
1991-11-13,41.54
1991-11-14,30.02
1991-11-15,46.22
1991-11-16,42.08
1991-11-17,32.36
1991-11-18,32.9
1991-11-19,39.56
1991-11-20,33.98
1991-11-21,36.86
1991-11-22,43.34
1991-11-23,52.88
1991-11-24,40.28
1991-11-25,44.6
1991-11-26,45.14
1991-11-27,32.18
1991-11-28,32.72
1991-11-29,29.48
1991-11-30,30.56
1991-12-01,32.18
1991-12-02,43.52
1991-12-03,53.24
1991-12-04,47.12
1991-12-05,46.04
1991-12-06,39.92
1991-12-07,34.16
1991-12-08,42.26
1991-12-09,44.24
1991-12-10,42.08
1991-12-11,39.38
1991-12-12,39.74
1991-12-13,45.5
1991-12-14,48.02
1991-12-15,51.98
1991-12-16,53.96
1991-12-17,43.16
1991-12-18,34.34
1991-12-19,32.9
1991-12-20,39.38
1991-12-21,37.76
1991-12-22,44.24
1991-12-23,48.38
1991-12-24,47.66
1991-12-25,50.0
1991-12-26,42.62
1991-12-27,45.68
1991-12-28,35.6
1991-12-29,32.0
1991-12-30,35.96
1991-12-31,38.66
1992-01-01,38.66
1992-01-02,43.34
1992-01-03,36.68
1992-01-04,32.9
1992-01-05,36.32
1992-01-06,32.36
1992-01-07,37.94
1992-01-08,43.7
1992-01-09,48.38
1992-01-10,39.74
1992-01-11,33.26
1992-01-12,33.62
1992-01-13,34.52
1992-01-14,43.88
1992-01-15,46.04
1992-01-16,38.12
1992-01-17,40.1
1992-01-18,52.52
1992-01-19,51.08
1992-01-20,48.38
1992-01-21,41.18
1992-01-22,46.94
1992-01-23,48.74
1992-01-24,48.38
1992-01-25,42.44
1992-01-26,42.62
1992-01-27,41.72
1992-01-28,40.64
1992-01-29,56.3
1992-01-30,48.2
1992-01-31,47.66
1992-02-01,38.12
1992-02-02,46.4
1992-02-03,51.8
1992-02-04,49.82
1992-02-05,50.72
1992-02-06,38.66
1992-02-07,41.18
1992-02-08,42.8
1992-02-09,43.52
1992-02-10,39.56
1992-02-11,41.72
1992-02-12,41.36
1992-02-13,41.18
1992-02-14,37.4
1992-02-15,32.0
1992-02-16,32.0
1992-02-17,37.58
1992-02-18,37.58
1992-02-19,38.12
1992-02-20,45.5
1992-02-21,39.38
1992-02-22,43.88
1992-02-23,54.32
1992-02-24,58.28
1992-02-25,61.7
1992-02-26,63.68
1992-02-27,63.5
1992-02-28,59.72
1992-02-29,53.78
1992-03-01,46.94
1992-03-02,47.3
1992-03-03,45.68
1992-03-04,45.32
1992-03-05,41.54
1992-03-06,33.26
1992-03-07,40.82
1992-03-08,45.14
1992-03-09,53.78
1992-03-10,55.58
1992-03-11,60.44
1992-03-12,63.32
1992-03-13,58.46
1992-03-14,57.2
1992-03-15,41.9
1992-03-16,39.92
1992-03-17,41.18
1992-03-18,48.2
1992-03-19,53.6
1992-03-20,58.82
1992-03-21,59.54
1992-03-22,57.74
1992-03-23,50.36
1992-03-24,55.94
1992-03-25,58.28
1992-03-26,54.5
1992-03-27,54.5
1992-03-28,55.22
1992-03-29,54.86
1992-03-30,52.52
1992-03-31,62.42
1992-04-01,68.72
1992-04-02,69.08
1992-04-03,57.2
1992-04-04,46.4
1992-04-05,43.7
1992-04-06,44.6
1992-04-07,56.12
1992-04-08,52.88
1992-04-09,47.48
1992-04-10,53.06
1992-04-11,47.84
1992-04-12,44.78
1992-04-13,50.72
1992-04-14,56.66
1992-04-15,51.44
1992-04-16,47.48
1992-04-17,45.32
1992-04-18,51.98
1992-04-19,63.32
1992-04-20,63.14
1992-04-21,51.98
1992-04-22,44.96
1992-04-23,55.76
1992-04-24,61.88
1992-04-25,69.26
1992-04-26,63.5
1992-04-27,67.64
1992-04-28,70.52
1992-04-29,62.06
1992-04-30,50.54
1992-05-01,60.98
1992-05-02,71.78
1992-05-03,75.2
1992-05-04,79.16
1992-05-05,82.4
1992-05-06,86.18
1992-05-07,80.96
1992-05-08,66.74
1992-05-09,62.96
1992-05-10,66.74
1992-05-11,63.86
1992-05-12,64.76
1992-05-13,70.52
1992-05-14,71.42
1992-05-15,69.8
1992-05-16,72.32
1992-05-17,74.48
1992-05-18,69.44
1992-05-19,62.6
1992-05-20,59.54
1992-05-21,66.02
1992-05-22,77.36
1992-05-23,81.86
1992-05-24,86.18
1992-05-25,81.32
1992-05-26,69.62
1992-05-27,73.58
1992-05-28,74.48
1992-05-29,73.58
1992-05-30,80.24
1992-05-31,83.48
1992-06-01,83.3
1992-06-02,79.7
1992-06-03,82.4
1992-06-04,78.98
1992-06-05,75.38
1992-06-06,77.0
1992-06-07,75.92
1992-06-08,79.16
1992-06-09,75.56
1992-06-10,75.38
1992-06-11,73.22
1992-06-12,50.54
1992-06-13,49.82
1992-06-14,55.76
1992-06-15,57.2
1992-06-16,67.64
1992-06-17,69.98
1992-06-18,68.36
1992-06-19,78.98
1992-06-20,83.84
1992-06-21,89.78
1992-06-22,93.38
1992-06-23,91.22
1992-06-24,78.62
1992-06-25,77.0
1992-06-26,78.8
1992-06-27,84.56
1992-06-28,70.7
1992-06-29,52.7
1992-06-30,52.34
1992-07-01,61.52
1992-07-02,69.8
1992-07-03,73.4
1992-07-04,69.8
1992-07-05,62.24
1992-07-06,66.38
1992-07-07,73.22
1992-07-08,76.64
1992-07-09,78.44
1992-07-10,78.26
1992-07-11,66.2
1992-07-12,76.1
1992-07-13,80.6
1992-07-14,82.76
1992-07-15,85.28
1992-07-16,89.6
1992-07-17,84.2
1992-07-18,84.74
1992-07-19,84.56
1992-07-20,74.12
1992-07-21,78.62
1992-07-22,66.38
1992-07-23,71.24
1992-07-24,78.08
1992-07-25,85.1
1992-07-26,88.16
1992-07-27,89.06
1992-07-28,89.96
1992-07-29,89.6
1992-07-30,96.26
1992-07-31,89.42
1992-08-01,87.08
1992-08-02,87.08
1992-08-03,85.28
1992-08-04,82.4
1992-08-05,81.68
1992-08-06,80.6
1992-08-07,78.8
1992-08-08,77.18
1992-08-09,86.0
1992-08-10,93.56
1992-08-11,100.04
1992-08-12,91.4
1992-08-13,90.5
1992-08-14,91.58
1992-08-15,85.1
1992-08-16,85.64
1992-08-17,89.96
1992-08-18,92.3
1992-08-19,87.26
1992-08-20,82.94
1992-08-21,71.24
1992-08-22,63.32
1992-08-23,68.18
1992-08-24,73.04
1992-08-25,77.36
1992-08-26,83.3
1992-08-27,83.66
1992-08-28,81.5
1992-08-29,80.96
1992-08-30,78.08
1992-08-31,72.86
1992-09-01,75.38
1992-09-02,79.34
1992-09-03,68.54
1992-09-04,66.56
1992-09-05,64.22
1992-09-06,60.08
1992-09-07,72.5
1992-09-08,72.5
1992-09-09,83.48
1992-09-10,82.76
1992-09-11,76.82
1992-09-12,63.86
1992-09-13,64.58
1992-09-14,70.16
1992-09-15,70.88
1992-09-16,72.14
1992-09-17,
1992-09-18,73.58
1992-09-19,72.14
1992-09-20,78.08
1992-09-21,82.22
1992-09-22,78.44
1992-09-23,68.9
1992-09-24,51.98
1992-09-25,61.34
1992-09-26,72.86
1992-09-27,78.26
1992-09-28,80.06
1992-09-29,83.66
1992-09-30,75.38
1992-10-01,71.96
1992-10-02,47.84
1992-10-03,47.48
1992-10-04,61.16
1992-10-05,64.4
1992-10-06,65.84
1992-10-07,68.72
1992-10-08,60.08
1992-10-09,67.46
1992-10-10,76.82
1992-10-11,79.16
1992-10-12,75.56
1992-10-13,62.06
1992-10-14,56.3
1992-10-15,61.34
1992-10-16,60.62
1992-10-17,68.54
1992-10-18,60.98
1992-10-19,64.22
1992-10-20,59.18
1992-10-21,50.72
1992-10-22,64.76
1992-10-23,70.16
1992-10-24,68.0
1992-10-25,66.38
1992-10-26,63.86
1992-10-27,66.2
1992-10-28,43.88
1992-10-29,41.18
1992-10-30,36.68
1992-10-31,41.72
1992-11-01,46.58
1992-11-02,45.14
1992-11-03,47.66
1992-11-04,43.16
1992-11-05,50.9
1992-11-06,58.64
1992-11-07,46.76
1992-11-08,37.94
1992-11-09,35.6
1992-11-10,42.44
1992-11-11,49.28
1992-11-12,54.68
1992-11-13,61.7
1992-11-14,63.32
1992-11-15,55.22
1992-11-16,48.02
1992-11-17,45.5
1992-11-18,41.72
1992-11-19,32.0
1992-11-20,36.68
1992-11-21,33.62
1992-11-22,32.0
1992-11-23,37.58
1992-11-24,36.14
1992-11-25,44.6
1992-11-26,46.04
1992-11-27,39.92
1992-11-28,42.8
1992-11-29,41.9
1992-11-30,39.38
1992-12-01,37.04
1992-12-02,32.36
1992-12-03,33.44
1992-12-04,38.66
1992-12-05,34.34
1992-12-06,32.72
1992-12-07,35.42
1992-12-08,29.66
1992-12-09,35.96
1992-12-10,38.12
1992-12-11,27.32
1992-12-12,30.02
1992-12-13,39.74
1992-12-14,35.42
1992-12-15,27.32
1992-12-16,23.36
1992-12-17,22.28
1992-12-18,25.16
1992-12-19,30.56
1992-12-20,33.98
1992-12-21,32.18
1992-12-22,34.52
1992-12-23,46.76
1992-12-24,46.94
1992-12-25,47.66
1992-12-26,37.04
1992-12-27,32.72
1992-12-28,29.66
1992-12-29,27.14
1992-12-30,22.46
1992-12-31,28.22
1993-01-01,26.96
1993-01-02,19.04
1993-01-03,21.56
1993-01-04,26.96
1993-01-05,28.04
1993-01-06,25.7
1993-01-07,34.16
1993-01-08,27.32
1993-01-09,23.9
1993-01-10,19.04
1993-01-11,22.28
1993-01-12,31.1
1993-01-13,32.9
1993-01-14,33.62
1993-01-15,33.08
1993-01-16,33.08
1993-01-17,39.92
1993-01-18,31.64
1993-01-19,32.9
1993-01-20,32.72
1993-01-21,33.62
1993-01-22,30.2
1993-01-23,28.04
1993-01-24,42.62
1993-01-25,50.54
1993-01-26,53.6
1993-01-27,52.7
1993-01-28,42.98
1993-01-29,41.18
1993-01-30,48.2
1993-01-31,46.4
1993-02-01,46.58
1993-02-02,50.9
1993-02-03,42.8
1993-02-04,48.38
1993-02-05,41.0
1993-02-06,50.18
1993-02-07,47.66
1993-02-08,35.78
1993-02-09,33.08
1993-02-10,39.02
1993-02-11,33.98
1993-02-12,34.7
1993-02-13,43.88
1993-02-14,42.8
1993-02-15,27.5
1993-02-16,26.42
1993-02-17,29.66
1993-02-18,41.36
1993-02-19,35.96
1993-02-20,27.5
1993-02-21,25.52
1993-02-22,33.98
1993-02-23,30.2
1993-02-24,24.98
1993-02-25,30.74
1993-02-26,32.72
1993-02-27,46.4
1993-02-28,49.1
1993-03-01,47.84
1993-03-02,41.36
1993-03-03,39.56
1993-03-04,46.4
1993-03-05,56.66
1993-03-06,60.44
1993-03-07,54.86
1993-03-08,52.52
1993-03-09,48.74
1993-03-10,42.98
1993-03-11,49.82
1993-03-12,49.28
1993-03-13,41.72
1993-03-14,39.92
1993-03-15,44.78
1993-03-16,37.76
1993-03-17,41.36
1993-03-18,46.58
1993-03-19,47.84
1993-03-20,45.32
1993-03-21,57.74
1993-03-22,53.42
1993-03-23,43.88
1993-03-24,36.86
1993-03-25,39.2
1993-03-26,42.62
1993-03-27,46.04
1993-03-28,51.98
1993-03-29,44.96
1993-03-30,43.16
1993-03-31,52.16
1993-04-01,37.58
1993-04-02,37.58
1993-04-03,40.82
1993-04-04,37.58
1993-04-05,37.94
1993-04-06,42.8
1993-04-07,51.8
1993-04-08,43.52
1993-04-09,41.18
1993-04-10,36.86
1993-04-11,35.78
1993-04-12,43.88
1993-04-13,43.52
1993-04-14,50.36
1993-04-15,45.68
1993-04-16,47.48
1993-04-17,37.04
1993-04-18,41.0
1993-04-19,49.64
1993-04-20,54.32
1993-04-21,50.0
1993-04-22,41.18
1993-04-23,36.68
1993-04-24,46.94
1993-04-25,48.02
1993-04-26,43.7
1993-04-27,54.68
1993-04-28,58.82
1993-04-29,56.3
1993-04-30,55.4
1993-05-01,60.44
1993-05-02,61.88
1993-05-03,46.76
1993-05-04,49.28
1993-05-05,57.38
1993-05-06,45.5
1993-05-07,45.5
1993-05-08,50.9
1993-05-09,66.92
1993-05-10,71.6
1993-05-11,75.92
1993-05-12,60.62
1993-05-13,62.6
1993-05-14,64.22
1993-05-15,68.18
1993-05-16,71.6
1993-05-17,72.32
1993-05-18,69.44
1993-05-19,65.66
1993-05-20,59.9
1993-05-21,55.4
1993-05-22,64.58
1993-05-23,71.24
1993-05-24,69.08
1993-05-25,50.72
1993-05-26,58.46
1993-05-27,51.08
1993-05-28,50.72
1993-05-29,59.36
1993-05-30,57.38
1993-05-31,51.08
1993-06-01,52.7
1993-06-02,49.64
1993-06-03,53.42
1993-06-04,51.62
1993-06-05,47.84
1993-06-06,50.36
1993-06-07,53.42
1993-06-08,59.36
1993-06-09,65.48
1993-06-10,60.62
1993-06-11,48.02
1993-06-12,62.96
1993-06-13,73.76
1993-06-14,67.1
1993-06-15,61.52
1993-06-16,62.06
1993-06-17,71.96
1993-06-18,78.08
1993-06-19,80.42
1993-06-20,78.62
1993-06-21,60.44
1993-06-22,56.48
1993-06-23,63.86
1993-06-24,73.76
1993-06-25,81.14
1993-06-26,79.52
1993-06-27,70.34
1993-06-28,61.7
1993-06-29,
1993-06-30,65.66
1993-07-01,73.58
1993-07-02,60.98
1993-07-03,65.12
1993-07-04,69.44
1993-07-05,74.12
1993-07-06,75.38
1993-07-07,74.12
1993-07-08,75.56
1993-07-09,75.92
1993-07-10,75.2
1993-07-11,74.12
1993-07-12,67.28
1993-07-13,65.66
1993-07-14,62.42
1993-07-15,61.16
1993-07-16,62.6
1993-07-17,65.12
1993-07-18,73.22
1993-07-19,67.28
1993-07-20,62.78
1993-07-21,63.32
1993-07-22,56.3
1993-07-23,66.38
1993-07-24,67.46
1993-07-25,66.74
1993-07-26,71.6
1993-07-27,78.44
1993-07-28,74.12
1993-07-29,69.44
1993-07-30,72.32
1993-07-31,82.58
1993-08-01,86.9
1993-08-02,87.8
1993-08-03,88.7
1993-08-04,84.2
1993-08-05,
1993-08-06,80.6
1993-08-07,72.68
1993-08-08,75.2
1993-08-09,75.56
1993-08-10,75.56
1993-08-11,69.26
1993-08-12,
1993-08-13,73.94
1993-08-14,69.98
1993-08-15,44.6
1993-08-16,54.5
1993-08-17,71.06
1993-08-18,77.0
1993-08-19,67.82
1993-08-20,65.66
1993-08-21,69.26
1993-08-22,76.82
1993-08-23,70.16
1993-08-24,59.18
1993-08-25,60.62
1993-08-26,74.66
1993-08-27,77.0
1993-08-28,73.22
1993-08-29,69.26
1993-08-30,74.48
1993-08-31,78.8
1993-09-01,78.26
1993-09-02,80.06
1993-09-03,81.86
1993-09-04,78.98
1993-09-05,82.22
1993-09-06,83.66
1993-09-07,82.76
1993-09-08,84.2
1993-09-09,86.0
1993-09-10,83.48
1993-09-11,76.46
1993-09-12,64.58
1993-09-13,67.28
1993-09-14,67.82
1993-09-15,67.64
1993-09-16,60.98
1993-09-17,53.24
1993-09-18,60.98
1993-09-19,61.88
1993-09-20,56.3
1993-09-21,62.06
1993-09-22,62.96
1993-09-23,
1993-09-24,71.24
1993-09-25,74.12
1993-09-26,80.42
1993-09-27,80.24
1993-09-28,83.12
1993-09-29,83.48
1993-09-30,
1993-10-01,
1993-10-02,80.96
1993-10-03,
1993-10-04,
1993-10-05,58.28
1993-10-06,57.92
1993-10-07,
1993-10-08,
1993-10-09,61.16
1993-10-10,
1993-10-11,
1993-10-12,
1993-10-13,55.4
1993-10-14,48.92
1993-10-15,
1993-10-16,46.94
1993-10-17,50.9
1993-10-18,53.78
1993-10-19,62.42
1993-10-20,66.38
1993-10-21,59.72
1993-10-22,62.78
1993-10-23,64.04
1993-10-24,62.24
1993-10-25,66.74
1993-10-26,66.02
1993-10-27,63.86
1993-10-28,61.16
1993-10-29,61.34
1993-10-30,
1993-10-31,
1993-11-01,53.6
1993-11-02,64.04
1993-11-03,51.8
1993-11-04,47.48
1993-11-05,52.7
1993-11-06,53.06
1993-11-07,51.8
1993-11-08,52.52
1993-11-09,54.14
1993-11-10,
1993-11-11,49.28
1993-11-12,47.3
1993-11-13,43.16
1993-11-14,45.5
1993-11-15,48.56
1993-11-16,45.32
1993-11-17,39.92
1993-11-18,
1993-11-19,
1993-11-20,55.58
1993-11-21,
1993-11-22,
1993-11-23,
1993-11-24,31.28
1993-11-25,39.74
1993-11-26,46.58
1993-11-27,
1993-11-28,40.82
1993-11-29,36.32
1993-11-30,35.78
1993-12-01,36.68
1993-12-02,42.98
1993-12-03,43.34
1993-12-04,
1993-12-05,
1993-12-06,33.26
1993-12-07,34.34
1993-12-08,
1993-12-09,38.66
1993-12-10,
1993-12-11,39.38
1993-12-12,26.6
1993-12-13,38.3
1993-12-14,30.74
1993-12-15,29.3
1993-12-16,32.18
1993-12-17,25.7
1993-12-18,35.06
1993-12-19,38.66
1993-12-20,41.54
1993-12-21,
1993-12-22,42.98
1993-12-23,46.76
1993-12-24,48.56
1993-12-25,55.76
1993-12-26,42.62
1993-12-27,44.78
1993-12-28,41.36
1993-12-29,43.7
1993-12-30,
1993-12-31,34.7
1994-01-01,
1994-01-02,
1994-01-03,48.92
1994-01-04,40.46
1994-01-05,
1994-01-06,34.34
1994-01-07,37.4
1994-01-08,32.54
1994-01-09,33.98
1994-01-10,
1994-01-11,40.82
1994-01-12,
1994-01-13,52.88
1994-01-14,54.68
1994-01-15,
1994-01-16,
1994-01-17,53.78
1994-01-18,60.98
1994-01-19,60.08
1994-01-20,
1994-01-21,50.36
1994-01-22,
1994-01-23,40.46
1994-01-24,32.18
1994-01-25,
1994-01-26,37.4
1994-01-27,29.48
1994-01-28,40.1
1994-01-29,42.44
1994-01-30,37.58
1994-01-31,43.34
1994-02-01,44.6
1994-02-02,
1994-02-03,
1994-02-04,44.6
1994-02-05,40.82
1994-02-06,32.9
1994-02-07,33.62
1994-02-08,30.02
1994-02-09,36.5
1994-02-10,30.38
1994-02-11,30.92
1994-02-12,
1994-02-13,37.58
1994-02-14,43.34
1994-02-15,37.04
1994-02-16,45.86
1994-02-17,
1994-02-18,31.28
1994-02-19,28.76
1994-02-20,30.56
1994-02-21,31.28
1994-02-22,
1994-02-23,33.98
1994-02-24,38.48
1994-02-25,
1994-02-26,41.54
1994-02-27,38.84
1994-02-28,
1994-03-01,55.58
1994-03-02,52.16
1994-03-03,49.82
1994-03-04,47.48
1994-03-05,41.36
1994-03-06,50.9
1994-03-07,52.34
1994-03-08,53.96
1994-03-09,57.56
1994-03-10,
1994-03-11,47.84
1994-03-12,
1994-03-13,66.2
1994-03-14,68.72
1994-03-15,53.6
1994-03-16,40.28
1994-03-17,46.58
1994-03-18,38.48
1994-03-19,37.58
1994-03-20,49.28
1994-03-21,39.74
1994-03-22,29.84
1994-03-23,37.4
1994-03-24,50.18
1994-03-25,51.44
1994-03-26,60.26
1994-03-27,
1994-03-28,62.06
1994-03-29,56.84
1994-03-30,51.26
1994-03-31,39.38
1994-04-01,52.7
1994-04-02,58.1
1994-04-03,50.54
1994-04-04,49.28
1994-04-05,48.02
1994-04-06,38.12
1994-04-07,38.48
1994-04-08,38.48
1994-04-09,39.2
1994-04-10,49.46
1994-04-11,59.36
1994-04-12,54.5
1994-04-13,51.08
1994-04-14,
1994-04-15,
1994-04-16,65.48
1994-04-17,70.52
1994-04-18,
1994-04-19,67.46
1994-04-20,66.2
1994-04-21,57.74
1994-04-22,48.74
1994-04-23,
1994-04-24,44.78
1994-04-25,42.26
1994-04-26,46.04
1994-04-27,43.7
1994-04-28,54.14
1994-04-29,56.48
1994-04-30,49.64
1994-05-01,54.5
1994-05-02,55.94
1994-05-03,50.72
1994-05-04,54.86
1994-05-05,53.6
1994-05-06,63.86
1994-05-07,65.12
1994-05-08,71.06
1994-05-09,73.4
1994-05-10,73.94
1994-05-11,75.2
1994-05-12,65.12
1994-05-13,63.86
1994-05-14,63.68
1994-05-15,46.22
1994-05-16,41.72
1994-05-17,46.94
1994-05-18,52.52
1994-05-19,51.62
1994-05-20,53.6
1994-05-21,50.54
1994-05-22,61.88
1994-05-23,71.06
1994-05-24,77.18
1994-05-25,76.46
1994-05-26,66.74
1994-05-27,62.06
1994-05-28,60.8
1994-05-29,63.32
1994-05-30,74.84
1994-05-31,66.02
1994-06-01,59.72
1994-06-02,71.42
1994-06-03,65.12
1994-06-04,62.78
1994-06-05,55.94
1994-06-06,50.18
1994-06-07,53.06
1994-06-08,65.48
1994-06-09,71.42
1994-06-10,80.24
1994-06-11,75.02
1994-06-12,71.42
1994-06-13,58.64
1994-06-14,56.84
1994-06-15,53.42
1994-06-16,58.64
1994-06-17,61.88
1994-06-18,66.74
1994-06-19,75.56
1994-06-20,76.46
1994-06-21,78.26
1994-06-22,76.46
1994-06-23,72.5
1994-06-24,75.38
1994-06-25,70.16
1994-06-26,71.6
1994-06-27,79.34
1994-06-28,82.4
1994-06-29,81.14
1994-06-30,79.52
1994-07-01,75.02
1994-07-02,72.68
1994-07-03,73.76
1994-07-04,74.84
1994-07-05,63.14
1994-07-06,80.78
1994-07-07,84.92
1994-07-08,88.34
1994-07-09,85.82
1994-07-10,82.76
1994-07-11,83.84
1994-07-12,81.86
1994-07-13,83.66
1994-07-14,83.48
1994-07-15,86.54
1994-07-16,89.6
1994-07-17,87.44
1994-07-18,85.28
1994-07-19,88.16
1994-07-20,93.38
1994-07-21,94.1
1994-07-22,81.5
1994-07-23,87.26
1994-07-24,80.06
1994-07-25,82.4
1994-07-26,89.6
1994-07-27,87.44
1994-07-28,88.16
1994-07-29,87.08
1994-07-30,87.08
1994-07-31,83.12
1994-08-01,84.2
1994-08-02,83.3
1994-08-03,83.84
1994-08-04,85.46
1994-08-05,78.98
1994-08-06,81.32
1994-08-07,81.32
1994-08-08,71.24
1994-08-09,78.26
1994-08-10,79.52
1994-08-11,81.14
1994-08-12,80.78
1994-08-13,84.2
1994-08-14,83.66
1994-08-15,80.42
1994-08-16,79.7
1994-08-17,82.4
1994-08-18,81.32
1994-08-19,76.82
1994-08-20,77.36
1994-08-21,73.22
1994-08-22,72.86
1994-08-23,78.08
1994-08-24,76.64
1994-08-25,77.72
1994-08-26,75.92
1994-08-27,79.16
1994-08-28,73.22
1994-08-29,73.94
1994-08-30,80.24
1994-08-31,77.9
1994-09-01,72.32
1994-09-02,68.72
1994-09-03,65.48
1994-09-04,75.74
1994-09-05,80.06
1994-09-06,78.08
1994-09-07,78.44
1994-09-08,71.96
1994-09-09,56.12
1994-09-10,55.58
1994-09-11,49.1